Volver al catálogo

SHIYAN 30-04

ActivoMilitarVLEO
NORAD 68140·PAYLOAD·🇨🇳 China

Lanzado Mar 12, 2026 desde Xichang Satellite Launch Center

Loading…

Próximos Pases (próximas 24 horas)

TLE

ActualizadoSource: Space-Track

Época: Sep 14, 2026, 18:28 UTC

1 68140U 26048B   26257.76963934  .00001377  00000-0  13608-3 0  9997
2 68140  34.9909  90.9470 0001853  41.0238 319.0606 14.91951180 27754

Sigue SHIYAN 30-04 en tiempo real con AllMySat

Download on the App Store